Regional Weather Roundup
Issued by NWS Grand Forks, ND

Home | Current Version | Previous Version | Graphics & Text | Print | Product List | Glossary On
Versions: 1 2 3 4 5 6 7 8 9 10 11 12 13 14 15 16 17 18 19 20 21 22 23 24 25 26 27 28 29 30 31 32 33 34 35 36 37 38 39 40 41 42 43 44 45 46 47 48 49 50
000
ASUS43 KFGF 311210
RWRFGF
PRAIRIE TO PINES  WEATHER ROUNDUP
NATIONAL WEATHER SERVICE EASTERN NORTH DAKOTA/GRAND FORKS ND
600 AM CST SAT JAN 31 2015

 **SATELLITE DATA USED TO AUGMENT SKY COVER AT AUTOMATED STATIONS**
 *****  WEATHER ACROSS EASTERN NORTH DAKOTA  *****

CITY           SKY/WX    TMP DP  RH WIND       PRES   REMARKS
GRAND FORKS    CLOUDY     7  -1  70 N20G30    30.36R WCI -13
6HR MIN TEMP:   7; 6HR MAX TEMP:  18; 6HR PCP: TRACE;

GRAND FRKS AFB FAIR       7   0  73 NE17      30.37R WCI -12
GRAND FRKS NWS   N/A      5 N/A N/A N14         N/A  WCI -12
DEVILS LAKE    CLOUDY     7   0  72 N17       30.32R WCI -12
6HR MIN TEMP:   7; 6HR MAX TEMP:  19;

FARGO          CLOUDY    15   7  70 N20       30.29S WCI  -2
WAHPETON ARPT  CLOUDY    18  14  86 N16G23    30.26S WCI   3
$$

 ***** WEATHER ACROSS CENTRAL AND WESTERN NORTH DAKOTA  *****

CITY           SKY/WX    TMP DP  RH WIND       PRES   REMARKS
BISMARCK       CLOUDY    22  20  92 NE16      30.21F FOG     WCI   8
6HR MIN TEMP:  22; 6HR MAX TEMP:  26;

MINOT          CLOUDY    11   4  73 NE15      30.29R WCI  -5
6HR MIN TEMP:  11; 6HR MAX TEMP:  20;

JAMESTOWN      CLOUDY    17  11  77 NE16      30.25S WCI   2
6HR MIN TEMP:  17; 6HR MAX TEMP:  24;

MINOT AFB      CLOUDY    10   6  86 NE16      30.30R WCI  -7
GARRISON         N/A     19  17  92 NE8       30.21F WCI   9
WILLISTON      CLOUDY    21  17  84 NE17      30.20R WCI   7
6HR MIN TEMP:  21; 6HR MAX TEMP:  24;

DICKINSON      FOG       22  19  89 E15       30.09F VSB 1/2 WCI   9
6HR MIN TEMP:  22; 6HR MAX TEMP:  26;

HETTINGER      FOG       24  22  91 E14       30.09S VSB 1/4 WCI  12
6HR MIN TEMP:  19; 6HR MAX TEMP:  26;

$$

 *****  OTHER AIRPORT OBSERVATIONS IN OUR AREA  *****

CITY           SKY/WX    TMP DP  RH WIND       PRES   REMARKS
WALHALLA         N/A      3   0  85 N20G25    30.41R WCI -18
GRAFTON AIRPOR NOT AVBL
VALLEY CITY AR FLURRIES  14  14 100 NE18      30.28R WCI  -3
CANDO          CLOUDY     5  -2  72 NE12      30.36R WCI -11
CAVALIER APRT  CLOUDY     5   0  78 N20G25    30.40R WCI -15
GWINNER        CLOUDY    21  19  93 NE21      30.25S WCI   6
ROLLA          CLOUDY     1  -2  85 N20       30.33R WCI -20
 ***** THE ABOVE OBSERVATIONS ARE NON NWS ARE NOT QUALITY
       CONTROLLED AND MAY MIS-REPORT RAIN FOR SNOW...
$$

  *****  WEATHER ACROSS NORTHERN MINNESOTA  *****

CITY           SKY/WX    TMP DP  RH WIND       PRES   REMARKS
FLAG ISLAND    PTCLDY     0  -6  78 NW20      30.28R WCI -22
WARROAD        PTCLDY     1  -6  71 NW7       30.30R WCI -11
ROSEAU         PTCLDY     3  -4  72 N10         N/A  WCI -12
HALLOCK        PTCLDY     3  -4  72 N17G23    30.38R WCI -17
THF RVR FALLS  PTCLDY     5  -4  66 N10       30.29R WCI -10
6HR MIN TEMP:   5; 6HR MAX TEMP:  19;

BAUDETTE       PTCLDY     2  -4  76 NW13      30.25S WCI -15
6HR MIN TEMP:   2; 6HR MAX TEMP:  18;

WASKISH        PTCLDY     9   3  78 NW8       30.25R WCI  -4
CROOKSTON      PTCLDY     9   1  72 N15       30.34R WCI  -8
STEPHEN NDAWN    N/A      3  -2  78 VRB13       N/A  WCI -14
GREENBUSH NDAW   N/A      1  -2  85 N12         N/A  WCI -15
$$
  *****  WEATHER ACROSS CENTRAL AND WEST MINNESOTA  *****

CITY           SKY/WX    TMP DP  RH WIND       PRES   REMARKS
FOSSTON        CLOUDY     9   5  85 N14       30.26R WCI  -8
BEMIDJI        FLURRIES  15  10  82 N12       30.20R WCI   2
PARK RAPIDS    CLOUDY    20  16  84 N10       30.18R WCI   9
6HR MIN TEMP:  17; 6HR MAX TEMP:  24;

ELBOW LAKE     CLOUDY    19  17  92 N14       30.19S WCI   6
WADENA         CLOUDY    21  19  93 N5        30.18R WCI  15
DETROIT LAKES  CLOUDY    18  16  93 N12G20    30.23R WCI   5
MOORHEAD       CLOUDY    16  12  86 N21       30.28F WCI  -2
FERGUS FALLS   CLOUDY    18  16  93 N14G20    30.25R WCI   4
MORRIS MN      CLOUDY    21  19  93 N17       30.18S FOG     WCI   7
STAPLES        CLOUDY    21  19  93 N10       30.18R WCI  10
$$
  *****  WEATHER ELSEWHERE ACROSS MINNESOTA  *****

CITY           SKY/WX    TMP DP  RH WIND       PRES   REMARKS
DULUTH         CLOUDY    20  14  77 NW9       30.11R WCI   9
6HR MIN TEMP:  18; 6HR MAX TEMP:  21;

INTRNTL FALLS  CLOUDY    11   5  77 NW9G21    30.21R WCI  -2
6HR MIN TEMP:  11; 6HR MAX TEMP:  16; 6HR PCP: TRACE;

ELY            FLURRIES  12  10  92 NW8       30.12R WCI   1
CLOQUET        CLOUDY    21  16  79 NW6       30.13R WCI  14
WHEATON        CLOUDY    18  16  93 N16       30.25R WCI   3
BRAINERD       CLOUDY    23  18  81 N10       30.18R WCI  12
6HR MIN TEMP:  23; 6HR MAX TEMP:  25;

HIBBING        CLOUDY    19  12  74 N16       30.14R WCI   4
6HR MIN TEMP:  17; 6HR MAX TEMP:  21; 6HR PCP: TRACE;

ALEXANDRIA     CLOUDY    21  19  92 N10       30.17R WCI  10
6HR MIN TEMP:  20; 6HR MAX TEMP:  24;

SAINT CLOUD    CLOUDY    24  20  84 N10       30.15R WCI  14
6HR MIN TEMP:  15; 6HR MAX TEMP:  24;

MINNEAPOLIS    PTCLDY    20  17  88 W3        30.14R
6HR MIN TEMP:  20; 6HR MAX TEMP:  25;

$$

  *****  WEATHER ACROSS SOUTH DAKOTA  *****

CITY           SKY/WX    TMP DP  RH WIND       PRES   REMARKS
SIOUX FALLS    MOCLDY    25  22  88 NE10      30.11R WCI  15
6HR MIN TEMP:  22; 6HR MAX TEMP:  32;

BROOKINGS      NOT AVBL
WATERTOWN      CLOUDY    22  21  96 NE18      30.12S FOG     WCI   7
6HR MIN TEMP:  20; 6HR MAX TEMP:  27;

HURON          CLOUDY    26  24  92 NE13      30.13S FOG     WCI  15
6HR MIN TEMP:  23; 6HR MAX TEMP:  27;

SISSETON         N/A     20  17  88 NE22      30.20F WCI   3
ABERDEEN       CLOUDY    23  19  85 NE16      30.19S WCI  10
6HR MIN TEMP:  23; 6HR MAX TEMP:  30;

MITCHELL       MOCLDY    26  24  92 N10       30.11S WCI  16
PIERRE         FOG       26  25  96 NE8       30.09F VSB 1/2 WCI  18
6HR MIN TEMP:  21; 6HR MAX TEMP:  29;

MOBRIDGE       CLOUDY    24  21  88 NE12      30.13F WCI  13
RAPID CITY     CLOUDY    29  23  78 NE9       30.01S WCI  20
6HR MIN TEMP:  27; 6HR MAX TEMP:  31;

$$

  *****  SOME WEATHER IN NEARBY STATES *****

CITY           SKY/WX    TMP DP  RH WIND       PRES   REMARKS
GLASGOW MT     CLOUDY    22  19  89 E23G32    30.08S WCI   6
6HR MIN TEMP:  22; 6HR MAX TEMP:  29;

GREAT FALLS MT CLOUDY    27  25  92 NW14      30.03F WCI  16
6HR MIN TEMP:  27; 6HR MAX TEMP:  36;

CHEYENNE WY    CLOUDY    31  23  72 N7        29.91F WCI  24
6HR MIN TEMP:  31; 6HR MAX TEMP:  32;

SCOTTSBLUFF NE CLOUDY    32  28  85 NW5       29.95F
6HR MIN TEMP:  32; 6HR MAX TEMP:  35;

OMAHA NE       CLOUDY    35  29  78 SE8       30.18F
6HR MIN TEMP:  31; 6HR MAX TEMP:  37;

DES MOINES IA  CLOUDY    35  27  72 SW13      30.20S
6HR MIN TEMP:  27; 6HR MAX TEMP:  35;

DAVENPORT IA   PTCLDY    27  18  69 SW10      30.22F WCI  17
6HR MIN TEMP:  24; 6HR MAX TEMP:  27;

CHICAGO IL     CLEAR     24  18  77 SW6       30.24S WCI  17
6HR MIN TEMP:  19; 6HR MAX TEMP:  26;

EAU CLAIRE WI  CLOUDY    22  14  71 CALM      30.13R
6HR MIN TEMP:  19; 6HR MAX TEMP:  22;

LA CROSSE WI   CLOUDY    24  16  71 S6        30.16S WCI  17
6HR MIN TEMP:  22; 6HR MAX TEMP:  25;

$$

  *****  SOME NATIONAL WEATHER *****

CITY           SKY/WX    TMP DP  RH WIND       PRES   REMARKS
LA GUARDIA NY  PTCLDY    14   0  53 NW33G45   30.10R WCI  -8
6HR MIN TEMP:  14; 6HR MAX TEMP:  19;

RALEIGH NC     PTCLDY    25   7  46 CALM      30.34R
6HR MIN TEMP:  22; 6HR MAX TEMP:  28;

ATLANTA GA     MOCLDY    29  19  66 CALM      30.33R
6HR MIN TEMP:  29; 6HR MAX TEMP:  35;

NEW ORLEANS LA PTCLDY    45  34  65 E7        30.29R
6HR MIN TEMP:  45; 6HR MAX TEMP:  52;

OKLAHOMA CITY  LGT RAIN  43  33  68 S10       30.18F
6HR MIN TEMP:  42; 6HR MAX TEMP:  45; 6HR PCP:  0.01;

ALBUQUERQUE NM CLOUDY    33  32  96 NW7       29.92F FOG
6HR MIN TEMP:  33; 6HR MAX TEMP:  36; 6HR PCP:  0.05;

SALT LAKE CITY MOCLDY    37  33  85 N3        29.96S
6HR MIN TEMP:  37; 6HR MAX TEMP:  41;

LOS ANGELES CA MOCLDY    57  56  96 CALM      29.84S
6HR MIN TEMP:  56; 6HR MAX TEMP:  59;



USA.gov is the U.S. government's official web portal to all federal, state and local government web resources and services.